Flag for Colombia Weather past 2 weeks in Cartagena, Colombia

Now
79 °F

Warm.


Feels Like: 82 °F
Forecast: 76 / 87 °F
Wind: 6 mph from Northeast

Location: Cartagena / Rafael Nunez

Current Time: Mar 31, 2015 at 2:24:11 AM

Latest Report: Mar 31, 2015 at 1:00 AM


Visibility: N/A

Pressure: 29.85 "Hg

Humidity: 84%

Dew point: 73 °F

Location of CartagenaLocation

Historic Weather in Cartagena — Graph

°F

Cartagena temperature yesterday

Maximum temperature yesterday: 88 °F (at 2:00 PM)
Minimum temperature yesterday: 79 °F (at 12:00 AM)
Average temperature yesterday: 81 °F

Past Weeks' High & Low Weather Summary

 TemperatureHumidityPressure
High91 °F (Mar 21, 11:00 AM)94% (Mar 17, 7:00 AM)30.37 "Hg (Mar 17, 7:00 AM)
Low59 °F (Mar 28, 6:00 PM)52% (Mar 21, 11:00 AM)26.72 "Hg (Mar 27, 12:00 AM)
Average81 °F79%29.86 "Hg
* Reported Mar 16 1:00 AM — Mar 31 1:00 AM, Cartagena, Weather by CustomWeather, © 2015

Note: Actual official high and low records may vary slightly from our data, if they occured in-between our weather recording intervals... More about our weather records

Advertising

Cartagena weather history for previous 24 hours

 ConditionsComfort  
Time TempWeatherWind HumidityBarometerVisibility
1:00 AM
Tue, Mar 31
79 °FWarm.6 mph84%29.85 "HgN/A
12:00 AM79 °FPassing clouds.7 mph89%29.88 "HgN/A
11:00 PM
Mon, Mar 30
81 °FPassing clouds.15 mph84%29.90 "HgN/A
10:00 PM81 °FPassing clouds.13 mph84%29.89 "HgN/A
9:00 PM81 °FOvercast.13 mph84%29.88 "HgN/A
8:00 PM81 °FOvercast.12 mph84%29.86 "HgN/A
6:00 PM82 °FPartly sunny.13 mph79%29.82 "HgN/A
5:00 PM82 °FPartly sunny.10 mph74%29.81 "HgN/A
4:00 PM84 °FPartly sunny.15 mph70%29.80 "HgN/A
3:00 PM86 °FScattered clouds.16 mph70%29.81 "HgN/A
2:00 PM88 °FScattered clouds.18 mph66%29.84 "HgN/A
1:00 PM86 °FScattered clouds.13 mph75%29.88 "HgN/A
12:00 PM84 °FScattered clouds.9 mph74%29.91 "Hg5 mi
11:00 AM82 °FScattered clouds.5 mph79%29.93 "Hg5 mi
10:00 AM81 °FScattered clouds.5 mph89%29.93 "Hg4 mi
9:00 AM82 °FScattered clouds.7 mph79%29.91 "Hg4 mi
8:00 AM81 °FScattered clouds.5 mph84%29.94 "Hg4 mi
7:00 AM79 °FScattered clouds.5 mph89%29.87 "Hg5 mi
6:00 AM79 °FPartly sunny.5 mph89%29.84 "Hg5 mi
5:00 AM79 °FPassing clouds.6 mph89%29.84 "HgN/A
4:00 AM79 °FPassing clouds.8 mph89%29.84 "HgN/A
3:00 AM79 °FPassing clouds.13 mph89%29.86 "HgN/A
2:00 AM79 °FPassing clouds.12 mph89%29.87 "HgN/A
Weather by CustomWeather, © 2015

See weather overviewHow to use our weather pages